[[{"header":{"parameterUnit":"m.s-1","parameterCategory":1,"la1":30.2991,"la2":30.254,"lo1":-89.0895,"lo2":-89.0444,"dy":0.0017,"dx":0.0017,"nx":28,"ny":28,"refTime":"2025-12-26T03:00:00:Z","depth":0,"parameterNumber":2,"parameterNumberName":"U-component_of_WINDS"},"data":[0,0,0,0,0,0,0,0,0,0,0,0,0,0,0,0,0,0,0,0,0,0,0,0,0,0,0,0,0,0,0,0,0,0,0,0,0,0,0,0,0,0,0,0,0,0,0,0,0,0,0,0,0,0,0,0,0,0,0.4351,0.4352,0,0.4388,0.4388,0.4389,0.4402,0.4402,0.4401,0.4401,0.4441,0.4442,0.4443,0,0,0,0,0,0,0,0,0,0,0,0,0,0.4296,0.4296,0.4351,0.4352,0.4352,0.4388,0.4388,0.4389,0.4402,0.4402,0.4401,0.4401,0.4441,0.4442,0.4443,0,0,0,0,0,0,0,0,0,0,0,0,0,0.4325,0.4297,0.4351,0.4363,0.4364,0.4388,0.4388,0.4389,0.4402,0.4402,0.4401,0.4401,0.444,0.4442,0.4444,0.4458,0,0,0.4449,0.445,0,0,0,0,0,0,0,0,0.4323,0.4327,0.4361,0.4362,0.4364,0.439,0.4383,0.4412,0.4402,0.4388,0.4401,0.4401,0.4424,0.4427,0.4435,0.446,0.4462,0.4449,0.445,0.4451,0.4451,0,0,0,0,0,0,0,0.4321,0.4325,0.4366,0.4361,0.4363,0.4367,0.4371,0.4389,0.4407,0.4389,0.439,0.4394,0.4425,0.4433,0.4436,0.4463,0.4449,0.4451,0.4452,0.4452,0.4503,0.4504,0,0,0,0,0,0,0.4317,0.4323,0.4365,0.4367,0.4342,0.4368,0.4373,0.4382,0.4406,0.441,0.4394,0.4394,0.443,0.4434,0.4437,0.4457,0.4451,0.4453,0.4454,0.4503,0.4503,0.4504,0,0,0,0,0,0,0.4315,0.432,0.4363,0.4345,0.4351,0.4369,0.438,0.4383,0.439,0.441,0.4414,0.4399,0.443,0.4435,0.4453,0.4458,0.4453,0.4455,0.4503,0.4503,0.4504,0.4496,0,0,0,0,0,0,0.4314,0.432,0.4325,0.4345,0.4352,0.4378,0.438,0.4383,0.4393,0.4394,0.4416,0.4419,0.443,0.445,0.4455,0.4461,0.4456,0.4502,0.4503,0.4503,0.4496,0.4496,0.4496,0,0,0,0,0,0.4312,0.4322,0.4325,0.433,0.4359,0.4378,0.4382,0.4394,0.4393,0.4399,0.4412,0.4418,0.4457,0.4452,0.4457,0.4464,0.4502,0.4503,0.4503,0.4496,0.4496,0.4496,0,0,0,0,0,0,0.4302,0.4324,0.4329,0.4345,0.4359,0.438,0.4388,0.4394,0.4409,0.4409,0.4424,0.4429,0.4446,0.4457,0.4451,0.448,0.448,0.4482,0.4472,0.4473,0.4473,0.4471,0.4458,0,0,0,0,0,0.4301,0.4314,0.4334,0.4347,0.4353,0.4369,0.4378,0.4386,0.4402,0.4408,0.4422,0.4438,0.4454,0.4464,0.4479,0.4497,0.4503,0.4504,0.4505,0.4505,0.4506,0.4518,0.4519,0.4506,0.4506,0.4506,0,0,0.4301,0.4315,0.4322,0.4345,0.4357,0.4371,0.4374,0.4389,0.4399,0.441,0.4429,0.444,0.4458,0.4477,0.4486,0.4486,0.4511,0.4506,0.4506,0.4507,0.4518,0.452,0.4521,0.4506,0.4506,0.4506,0,0,0.4307,0.4319,0.4331,0.4343,0.4361,0.4372,0.4375,0.4394,0.4402,0.442,0.4429,0.4443,0.4469,0.4482,0.4492,0.4504,0.4511,0.4509,0.451,0.4521,0.4522,0.4523,0.4528,0.453,0.451,0.451,0.451,0,0.4305,0.4325,0.4337,0.4351,0.4361,0.4371,0.4384,0.4396,0.4418,0.4425,0.4425,0.4459,0.4472,0.4494,0.4497,0.4505,0.4509,0.4507,0.4521,0.4522,0.4523,0.4528,0.453,0.451,0.451,0.451,0.451,0,0.4322,0.4336,0.4344,0.4364,0.4376,0.4389,0.4404,0.4414,0.4421,0.4432,0.4451,0.4467,0.4486,0.4492,0.4499,0.4515,0.4515,0.4518,0.4518,0.4524,0.4529,0.4531,0.451,0.451,0.451,0.451,0,0,0.4323,0.435,0.4353,0.4363,0.4383,0.4395,0.4409,0.4428,0.4436,0.4452,0.4465,0.4487,0.449,0.4501,0.451,0.452,0.4529,0.4521,0.4522,0.4523,0.4549,0.4547,0.4549,0.4533,0.4534,0.4534,0.4548,0,0.4332,0.4358,0.4369,0.439,0.4404,0.4414,0.4426,0.4441,0.4452,0.4466,0.4478,0.4494,0.4496,0.4503,0.4512,0.4526,0.4535,0.4525,0.4547,0.4547,0.4542,0.4552,0.455,0.4562,0.455,0.455,0.455,0,0.4347,0.4362,0.4384,0.4403,0.441,0.4421,0.4439,0.4452,0.4469,0.4476,0.4489,0.4498,0.4514,0.4513,0.4537,0.453,0.4539,0.4547,0.4548,0.4551,0.455,0.4556,0.4566,0.4568,0.4553,0.4553,0.4553,0,0.4346,0.4372,0.4388,0.4397,0.442,0.4428,0.4438,0.4455,0.4465,0.4481,0.4489,0.4507,0.4517,0.4531,0.4544,0.4542,0.4567,0.4567,0.4574,0.4574,0.458,0.4579,0.4592,0.4584,0.4584,0.4584,0.4584,0,0.4356,0.4369,0.4389,0.4399,0.4415,0.4428,0.4443,0.4454,0.4469,0.4483,0.4492,0.4505,0.4522,0.4537,0.4547,0.4566,0.457,0.4577,0.458,0.4577,0.4576,0.4584,0.4584,0.4585,0.4585,0.4585,0.4585,0,0.4358,0.4372,0.4391,0.4411,0.4417,0.4427,0.4445,0.4456,0.4467,0.4484,0.4489,0.4507,0.4525,0.454,0.4564,0.4571,0.4591,0.4593,0.4585,0.4586,0.4593,0.4593,0.4613,0.4616,0.4605,0.4605,0.4605,0,0.4364,0.4374,0.4396,0.4405,0.4415,0.443,0.4441,0.4455,0.4466,0.4487,0.4496,0.4514,0.453,0.4559,0.4574,0.4593,0.4597,0.4602,0.46,0.4596,0.4598,0.4597,0.4599,0.4603,0.4603,0.4603,0.4603,0,0.4373,0.4379,0.4394,0.4411,0.4424,0.4438,0.4453,0.4461,0.4477,0.4489,0.4508,0.452,0.4544,0.4563,0.4583,0.4595,0.4602,0.4604,0.4607,0.4604,0.4599,0.4602,0.4586,0.4603,0.4603,0.4603,0.4603,0.4603,0.4377,0.4388,0.4405,0.4421,0.4434,0.4448,0.4459,0.4472,0.4487,0.4508,0.4515,0.4534,0.4552,0.458,0.4592,0.4607,0.4608,0.4612,0.4613,0.4614,0.4614,0.4595,0.4611,0.4611,0.4611,0.4611,0.4611,0,0.4388,0.4399,0.4414,0.4435,0.4448,0.4453,0.447,0.4481,0.4497,0.4513,0.4528,0.455,0.4569,0.4586,0.4605,0.4615,0.4619,0.462,0.4619,0.4622,0.4612,0.4608,0.4616,0.4616,0.4616,0.4616,0.4616,0.4616,0.4394,0.4412,0.4421,0.4445,0.4457,0.4475,0.4485,0.4498,0.451,0.4534,0.4549,0.456,0.4577,0.4598,0.4615,0.462,0.4627,0.4627,0.4633,0.4623,0.4623,0.4622,0.4618,0.4629,0.4629,0.4642,0.4642,0.4642]},{"header":{"parameterUnit":"m.s-1","parameterCategory":1,"la1":30.2991,"la2":30.254,"lo1":-89.0895,"lo2":-89.0444,"dy":0.0017,"dx":0.0017,"nx":28,"ny":28,"refTime":"2025-12-26T03:00:00:Z","depth":0,"parameterNumber":3,"parameterNumberName":"V-component_of_WINDS"},"data":[0,0,0,0,0,0,0,0,0,0,0,0,0,0,0,0,0,0,0,0,0,0,0,0,0,0,0,0,0,0,0,0,0,0,0,0,0,0,0,0,0,0,0,0,0,0,0,0,0,0,0,0,0,0,0,0,0,0,2.0768,2.0768,0,2.0784,2.0785,2.0785,2.0759,2.0759,2.0758,2.0757,2.0773,2.0774,2.0775,0,0,0,0,0,0,0,0,0,0,0,0,0,2.0715,2.0716,2.0768,2.0768,2.0769,2.0784,2.0785,2.0785,2.076,2.0759,2.0757,2.0757,2.0772,2.0774,2.0775,0,0,0,0,0,0,0,0,0,0,0,0,0,2.0735,2.0717,2.0768,2.0758,2.0757,2.0784,2.0785,2.0785,2.076,2.0759,2.0757,2.0756,2.0772,2.0774,2.0776,2.0813,0,0,2.0781,2.0782,0,0,0,0,0,0,0,0,2.0734,2.0737,2.0759,2.0759,2.0758,2.0769,2.0772,2.0794,2.076,2.0759,2.0757,2.0755,2.0772,2.0774,2.078,2.0814,2.0815,2.0781,2.0783,2.0783,2.0784,0,0,0,0,0,0,0,2.0733,2.0737,2.0775,2.076,2.0759,2.0752,2.0754,2.0776,2.0773,2.0759,2.0757,2.0759,2.0772,2.0778,2.078,2.0815,2.0781,2.0783,2.0784,2.0785,2.0881,2.0883,0,0,0,0,0,0,2.0733,2.0736,2.0774,2.0775,2.0743,2.0754,2.0756,2.0766,2.0772,2.0772,2.076,2.0758,2.0776,2.0778,2.0781,2.0826,2.0783,2.0785,2.0786,2.088,2.0882,2.0883,0,0,0,0,0,0,2.0732,2.0737,2.0773,2.0755,2.0759,2.0757,2.0769,2.0767,2.0774,2.0774,2.0773,2.0768,2.0775,2.0778,2.0806,2.0826,2.0786,2.0788,2.0878,2.088,2.0882,2.0917,0,0,0,0,0,0,2.073,2.0736,2.0751,2.0755,2.076,2.0798,2.077,2.0769,2.0777,2.0774,2.078,2.078,2.0774,2.0803,2.0807,2.0828,2.0789,2.0876,2.0879,2.0882,2.0914,2.092,2.0925,0,0,0,0,0,2.0729,2.0759,2.0752,2.0756,2.0778,2.08,2.0802,2.0795,2.0779,2.0794,2.0793,2.078,2.0823,2.0806,2.0811,2.0832,2.0875,2.0878,2.0881,2.0911,2.0919,2.0925,0,0,0,0,0,0,2.0757,2.076,2.0751,2.0785,2.0792,2.0795,2.0813,2.0803,2.0815,2.0812,2.0802,2.0803,2.0833,2.0835,2.0816,2.0869,2.0846,2.0851,2.0867,2.0874,2.088,2.088,2.0791,0,0,0,0,0,2.0767,2.0785,2.0786,2.0815,2.0819,2.0816,2.0825,2.0819,2.0826,2.0829,2.0831,2.0838,2.0853,2.0864,2.0878,2.0913,2.0915,2.0931,2.0936,2.0941,2.0945,2.0966,2.0973,2.0894,2.0894,2.0894,0,0,2.0788,2.0792,2.0804,2.0821,2.0826,2.0845,2.0819,2.0839,2.0853,2.0832,2.0859,2.086,2.0867,2.09,2.0914,2.0902,2.0967,2.0945,2.0949,2.0951,2.097,2.0977,2.0984,2.0896,2.0896,2.0895,0,0,2.0837,2.0841,2.0867,2.0872,2.088,2.0878,2.0884,2.0889,2.0889,2.0915,2.0901,2.0916,2.0942,2.0949,2.0956,2.1007,2.0995,2.1011,2.1041,2.1061,2.1067,2.1073,2.1092,2.1099,2.1015,2.1015,2.1015,0,2.0862,2.089,2.0881,2.0903,2.0911,2.0893,2.0919,2.0925,2.0937,2.0943,2.093,2.0963,2.0967,2.1001,2.1013,2.1019,2.1026,2.1011,2.1067,2.1072,2.1078,2.1096,2.1103,2.1017,2.1017,2.1017,2.1017,0,2.0921,2.094,2.096,2.0973,2.0983,2.1007,2.1002,2.1013,2.1005,2.1004,2.1032,2.1035,2.105,2.1057,2.105,2.1091,2.1083,2.1069,2.1045,2.1087,2.1105,2.1111,2.102,2.102,2.1019,2.1018,0,0,2.0989,2.0997,2.1005,2.1011,2.1018,2.1033,2.1055,2.107,2.1081,2.1089,2.1109,2.1131,2.1118,2.1126,2.1119,2.1136,2.1178,2.1119,2.1119,2.1131,2.1224,2.1236,2.1244,2.1169,2.117,2.1171,2.1224,0,2.1039,2.1079,2.1072,2.1111,2.1129,2.1112,2.1132,2.1138,2.1138,2.1153,2.1151,2.1168,2.1149,2.1153,2.1169,2.1169,2.1196,2.1165,2.1188,2.1189,2.1188,2.1253,2.1266,2.1315,2.123,2.1231,2.1232,0,2.1103,2.1115,2.1156,2.1161,2.1168,2.1186,2.12,2.1214,2.1221,2.122,2.1228,2.1218,2.1241,2.1216,2.1248,2.1227,2.1235,2.1236,2.1238,2.1241,2.1214,2.126,2.1331,2.1339,2.1242,2.1241,2.1241,0,2.115,2.1176,2.1205,2.121,2.1216,2.123,2.1233,2.1239,2.1249,2.126,2.1266,2.128,2.1287,2.1298,2.1292,2.1274,2.1325,2.1299,2.1325,2.1325,2.1338,2.1338,2.1413,2.1341,2.1341,2.134,2.134,0,2.1208,2.1234,2.1226,2.1244,2.1273,2.1263,2.1292,2.1293,2.1299,2.1316,2.1301,2.1318,2.1308,2.1324,2.1319,2.1347,2.135,2.1349,2.1348,2.1352,2.1352,2.1359,2.1356,2.1342,2.1342,2.1341,2.1341,0,2.1267,2.1262,2.1292,2.1296,2.1297,2.1319,2.1322,2.1338,2.1336,2.1358,2.1363,2.136,2.1378,2.1372,2.1391,2.1388,2.1424,2.1417,2.1422,2.1421,2.1447,2.1445,2.1531,2.1542,2.1461,2.1461,2.1462,0,2.1304,2.1324,2.133,2.1341,2.1346,2.1363,2.1373,2.1364,2.1375,2.1385,2.1401,2.1417,2.143,2.146,2.1459,2.1473,2.1468,2.1497,2.147,2.1474,2.1471,2.147,2.1473,2.1503,2.1504,2.1505,2.1505,0,2.1373,2.1369,2.1384,2.1399,2.1411,2.1422,2.1432,2.1441,2.1433,2.1446,2.1464,2.1474,2.1494,2.1511,2.1525,2.1527,2.1516,2.1513,2.152,2.1525,2.1528,2.1528,2.1438,2.1512,2.1511,2.1511,2.151,2.151,2.1423,2.1441,2.1448,2.1465,2.1471,2.148,2.1496,2.1496,2.1512,2.1528,2.1521,2.1542,2.1549,2.1566,2.1571,2.1587,2.1576,2.1586,2.1589,2.1592,2.1596,2.1524,2.1589,2.1589,2.1589,2.1589,2.1588,0,2.1492,2.1496,2.1512,2.1526,2.154,2.1526,2.1536,2.1549,2.1568,2.1575,2.1588,2.161,2.1626,2.1626,2.1642,2.1655,2.165,2.1659,2.1659,2.1661,2.1604,2.1597,2.1663,2.1663,2.1663,2.1663,2.1663,2.1663,2.153,2.1559,2.1557,2.1589,2.1592,2.1613,2.162,2.1629,2.1634,2.1659,2.1673,2.1673,2.1678,2.1693,2.1708,2.1707,2.1714,2.1726,2.1724,2.1672,2.1664,2.1657,2.1651,2.1727,2.1728,2.1779,2.178,2.178]}]]